KB6VSE Weather Reports


time (UTC)temp
C
wind
direction
speed
KPH
gust
KPH
rain 1hr
cm
rain 24hr
cm
rain mn
cm
humidity
%
barometer
mb
20260509211551 26 0 0.0 3.2 0.00 0.00 0.00 44 1016.2
20260509210104 25 0 0.0 0.0 0.00 0.00 0.00 42 1016.3
20260509204551 25 0 0.0 0.0 0.00 0.00 0.00 50 1016.3
20260509203047 24 0 0.0 0.0 0.00 0.00 0.00 51 1016.5
20260509201556 23 0 0.0 0.0 0.00 0.00 0.00 54 1016.6
20260509200051 23 0 0.0 0.0 0.00 0.00 0.00 53 1016.7
20260509194548 22 0 0.0 0.0 0.00 0.00 0.00 56 1017.0
20260509193046 21 0 0.0 1.6 0.00 0.00 0.00 57 1017.3
20260509191553 21 0 0.0 0.0 0.00 0.00 0.00 59 1017.5
20260509190059 20 0 0.0 0.0 0.00 0.00 0.00 64 1017.8
20260509184547 20 0 0.0 0.0 0.00 0.00 0.00 66 1017.8
20260509183048 19 0 0.0 1.6 0.00 0.00 0.00 67 1018.1
20260509181546 18 0 0.0 0.0 0.00 0.00 0.00 69 1018.2
20260509180047 17 0 0.0 0.0 0.00 0.00 0.00 71 1018.3
20260509174545 16 0 0.0 0.0 0.00 0.00 0.00 72 1018.2
20260509173053 16 0 0.0 0.0 0.00 0.00 0.00 74 1018.3
20260509171549 15 0 0.0 0.0 0.00 0.00 0.00 76 1018.7
20260509170057 15 0 0.0 0.0 0.00 0.00 0.00 77 1018.7
20260509164545 14 0 0.0 0.0 0.00 0.00 0.00 77 1018.8
20260509163103 13 0 0.0 0.0 0.00 0.00 0.00 77 1018.9
20260509161553 13 0 0.0 1.6 0.00 0.00 0.00 81 1019.0
20260509160048 12 0 0.0 0.0 0.00 0.00 0.00 85 1019.2
20260509154550 11 0 0.0 1.6 0.00 0.00 0.00 86 1019.2
20260509153046 11 0 0.0 0.0 0.00 0.00 0.00 88 1019.2
20260509151547 10 0 0.0 0.0 0.00 0.00 0.00 90 1019.2
20260509150104 10 0 0.0 0.0 0.00 0.00 0.00 93 1019.2
20260509144547 9 0 0.0 0.0 0.00 0.00 0.00 94 1019.1
20260509143055 8 0 0.0 0.0 0.00 0.00 0.00 93 1019.2
20260509141547 8 0 0.0 0.0 0.00 0.00 0.00 93 1019.1
20260509140045 8 0 0.0 0.0 0.00 0.00 0.00 93 1019.1
20260509134544 7 0 0.0 0.0 0.00 0.00 0.00 93 1018.9
20260509133050 7 0 0.0 0.0 0.00 0.00 0.00 93 1018.8
20260509131547 7 0 0.0 0.0 0.00 0.00 0.00 93 1018.7
20260509130055 7 0 0.0 0.0 0.00 0.00 0.00 93 1018.6
20260509124555 7 0 0.0 0.0 0.00 0.00 0.00 92 1018.6
20260509123044 7 0 0.0 0.0 0.00 0.00 0.00 92 1018.8
20260509121557 7 0 0.0 0.0 0.00 0.00 0.00 92 1018.7
20260509120049 7 0 0.0 0.0 0.00 0.00 0.00 92 1018.8
20260509114600 7 0 0.0 0.0 0.00 0.00 0.00 92 1018.8
20260509113046 7 0 0.0 0.0 0.00 0.00 0.00 92 1019.0
20260509111547 7 0 0.0 0.0 0.00 0.00 0.00 91 1018.9
20260509110053 7 0 0.0 0.0 0.00 0.00 0.00 91 1019.1
20260509104552 8 0 0.0 0.0 0.00 0.00 0.00 91 1019.3
20260509103051 8 0 0.0 0.0 0.00 0.00 0.00 91 1019.3
20260509101545 8 0 0.0 0.0 0.00 0.00 0.00 90 1019.3
20260509100046 8 0 0.0 0.0 0.00 0.00 0.00 91 1019.4
20260509094549 8 0 0.0 0.0 0.00 0.00 0.00 90 1019.5
20260509093045 8 0 0.0 0.0 0.00 0.00 0.00 90 1019.5
20260509091548 8 0 0.0 0.0 0.00 0.00 0.00 89 1019.6
20260509090057 9 0 0.0 0.0 0.00 0.00 0.00 88 1019.7
20260509084549 9 0 0.0 0.0 0.00 0.00 0.00 88 1019.7
20260509083052 10 0 0.0 0.0 0.00 0.00 0.00 87 1019.9
20260509081545 10 0 0.0 0.0 0.00 0.00 0.00 86 1020.0
20260509074551 10 0 0.0 0.0 0.00 0.00 0.00 83 1020.3
20260509073055 11 0 0.0 0.0 0.00 0.00 0.00 82 1020.2
20260509071552 11 0 0.0 0.0 0.00 0.00 0.00 82 1020.4
20260509070050 11 0 0.0 0.0 0.00 0.00 0.00 80 1020.5
20260509064544 12 0 0.0 0.0 0.00 0.00 0.00 80 1020.6
20260509063049 12 0 0.0 0.0 0.00 0.00 0.00 78 1020.6
20260509061544 12 0 0.0 0.0 0.00 0.00 0.00 77 1020.7
20260509060054 12 0 0.0 0.0 0.00 0.00 0.00 77 1020.9
20260509054551 12 0 0.0 0.0 0.00 0.00 0.00 77 1021.0
20260509053047 13 0 0.0 0.0 0.00 0.00 0.00 76 1020.8
20260509051546 13 0 0.0 0.0 0.00 0.00 0.00 75 1020.7
20260509050057 13 0 0.0 0.0 0.00 0.00 0.00 73 1020.5
20260509044543 14 0 0.0 0.0 0.00 0.00 0.00 72 1020.4
20260509043048 15 0 0.0 0.0 0.00 0.00 0.00 70 1020.1
20260509041549 15 0 0.0 0.0 0.00 0.00 0.00 68 1020.1
20260509040049 16 0 0.0 0.0 0.00 0.00 0.00 67 1019.8
20260509034558 16 0 0.0 0.0 0.00 0.00 0.00 64 1019.7
20260509033102 17 0 0.0 0.0 0.00 0.00 0.00 62 1019.4
20260509031553 18 0 0.0 0.0 0.00 0.00 0.00 59 1019.3
20260509030049 18 0 0.0 1.6 0.00 0.00 0.00 57 1019.1
20260509024552 20 0 0.0 0.0 0.00 0.00 0.00 53 1018.9
20260509023047 20 0 0.0 4.8 0.00 0.00 0.00 52 1018.8
20260509021551 21 0 0.0 0.0 0.00 0.00 0.00 48 1018.7
20260509020050 21 0 0.0 0.0 0.00 0.00 0.00 46 1018.6
20260509014546 22 0 0.0 0.0 0.00 0.00 0.00 44 1018.4
20260509013049 22 0 0.0 0.0 0.00 0.00 0.00 40 1018.4
20260509011548 23 0 0.0 0.0 0.00 0.00 0.00 35 1018.4
20260509010055 23 0 0.0 0.0 0.00 0.00 0.00 32 1018.5
20260509004555 23 0 0.0 1.6 0.00 0.00 0.00 28 1018.4
20260509003048 23 0 0.0 8.0 0.00 0.00 0.00 31 1018.4
20260509001549 24 0 0.0 8.0 0.00 0.00 0.00 30 1018.4
20260509000048 24 0 0.0 14.5 0.00 0.00 0.00 29 1018.4
20260508234544 25 0 0.0 3.2 0.00 0.00 0.00 32 1018.5
20260508233044 25 0 0.0 16.1 0.00 0.00 0.00 27 1018.5
20260508231553 25 0 0.0 0.0 0.00 0.00 0.00 29 1018.6
20260508230048 25 0 0.0 3.2 0.00 0.00 0.00 28 1018.7
20260508224607 25 0 0.0 9.7 0.00 0.00 0.00 28 1018.8
20260508223045 25 0 0.0 16.1 0.00 0.00 0.00 32 1018.8
20260508221557 25 0 0.0 14.5 0.00 0.00 0.00 32 1019.0
20260508220049 25 0 0.0 9.7 0.00 0.00 0.00 32 1019.0
20260508214550 25 0 0.0 0.0 0.00 0.00 0.00 39 1019.1
20260508213045 24 343 0.0 0.0 0.00 0.00 0.00 42 1019.3